QPF
0.02 0.03 0.03 0.07 0.07 0.05 0.03 0.03 0.03 0.05 0.05 0.05 0.04 0.05 0.06 0.07 0.07 0.07 0.06 0.05 0.04 0.04 0.04 0.04 0.05 0.05 0.04 0.04 0.03 0.03 0.02 0.01 0.01 0.01 0.01 0.01 0.01 0.01 0.02 0.01 0.02 0.03 0.02
0.02 0.02 0.02 0.04 0.08 0.07 0.04 0.03 0.03 0.04 0.05 0.05 0.05 0.05 0.05 0.06 0.06 0.06 0.07 0.06 0.06 0.05 0.05 0.04 0.04 0.04 0.04 0.04 0.03 0.03 0.03 0.02 0.01 0.01 0.01 0.01 0.02 0.02 0.01 0.01 0.02 0.02 0.01
0.02 0.02 0.02 0.02 0.05 0.08 0.07 0.04 0.03 0.03 0.04 0.04 0.04 0.05 0.05 0.05 0.05 0.05 0.06 0.06 0.06 0.06 0.06 0.05 0.05 0.04 0.04 0.04 0.03 0.03 0.03 0.03 0.02 0.01 0.01 0.01 0.02 0.02 0.02 0.01 0.02 0.01 0.01
0.02 0.02 0.02 0.02 0.03 0.05 0.07 0.07 0.05 0.04 0.04 0.04 0.04 0.04 0.05 0.05 0.05 0.04 0.05 0.05 0.05 0.06 0.07 0.07 0.06 0.06 0.05 0.04 0.03 0.03 0.03 0.03 0.02 0.02 0.02 0.02 0.02 0.02 0.02 0.02 0.02 0.02 0.02
0.02 0.02 0.03 0.03 0.03 0.03 0.05 0.06 0.08 0.06 0.04 0.04 0.04 0.04 0.05 0.05 0.05 0.04 0.04 0.04 0.05 0.05 0.06 0.07 0.07 0.07 0.07 0.06 0.05 0.04 0.03 0.04 0.03 0.03 0.02 0.02 0.02 0.02 0.02 0.02 0.02 0.02 0.03
0.01 0.02 0.03 0.03 0.03 0.03 0.04 0.05 0.06 0.08 0.07 0.05 0.04 0.04 0.04 0.05 0.05 0.05 0.05 0.05 0.05 0.06 0.05 0.06 0.06 0.07 0.07 0.08 0.08 0.06 0.05 0.04 0.04 0.04 0.03 0.02 0.02 0.02 0.02 0.02 0.02 0.02 0.02
0.02 0.02 0.02 0.03 0.03 0.03 0.03 0.04 0.05 0.06 0.07 0.07 0.06 0.06 0.05 0.05 0.05 0.04 0.05 0.05 0.05 0.05 0.05 0.05 0.05 0.06 0.06 0.06 0.07 0.08 0.07 0.05 0.04 0.03 0.03 0.02 0.02 0.01 0.02 0.02 0.02 0.02 0.02
0.02 0.02 0.02 0.02 0.02 0.03 0.03 0.03 0.04 0.04 0.05 0.07 0.07 0.07 0.07 0.06 0.06 0.05 0.05 0.05 0.05 0.05 0.05 0.05 0.05 0.05 0.05 0.06 0.07 0.08 0.08 0.07 0.05 0.04 0.03 0.02 0.02 0.02 0.02 0.02 0.02 0.03 0.02
0.02 0.02 0.02 0.02 0.02 0.03 0.03 0.03 0.03 0.04 0.04 0.05 0.05 0.05 0.06 0.06 0.06 0.05 0.06 0.06 0.07 0.07 0.06 0.05 0.05 0.04 0.05 0.06 0.07 0.08 0.08 0.08 0.07 0.07 0.05 0.04 0.04 0.03 0.03 0.03 0.04 0.04 0.04
0.02 0.02 0.02 0.02 0.02 0.03 0.03 0.03 0.03 0.03 0.03 0.03 0.04 0.05 0.05 0.05 0.06 0.06 0.06 0.06 0.07 0.07 0.07 0.07 0.06 0.05 0.05 0.06 0.06 0.06 0.06 0.06 0.06 0.07 0.07 0.06 0.05 0.05 0.04 0.03 0.03 0.04 0.04
0.02 0.02 0.02 0.03 0.03 0.03 0.03 0.03 0.03 0.03 0.02 0.03 0.03 0.04 0.04 0.05 0.06 0.07 0.07 0.07 0.06 0.06 0.06 0.06 0.06 0.05 0.05 0.07 0.07 0.06 0.06 0.05 0.06 0.07 0.07 0.07 0.07 0.05 0.04 0.04 0.03 0.03 0.03
0.02 0.02 0.02 0.03 0.03 0.03 0.03 0.02 0.02 0.02 0.02 0.02 0.02 0.03 0.04 0.04 0.05 0.06 0.07 0.08 0.06 0.05 0.05 0.05 0.05 0.05 0.06 0.07 0.08 0.08 0.08 0.08 0.08 0.08 0.08 0.07 0.07 0.06 0.04 0.04 0.04 0.03 0.02
0.02 0.03 0.03 0.02 0.02 0.03 0.03 0.03 0.02 0.02 0.02 0.02 0.02 0.03 0.03 0.04 0.04 0.05 0.05 0.07 0.07 0.06 0.05 0.05 0.05 0.06 0.07 0.08 0.08 0.07 0.07 0.08 0.08 0.07 0.07 0.06 0.05 0.04 0.04 0.04 0.04 0.04 0.04
0.02 0.03 0.03 0.03 0.02 0.02 0.03 0.03 0.03 0.02 0.02 0.02 0.02 0.02 0.02 0.03 0.03 0.04 0.04 0.05 0.06 0.06 0.05 0.04 0.05 0.06 0.07 0.07 0.07 0.07 0.07 0.06 0.06 0.06 0.06 0.06 0.05 0.05 0.05 0.04 0.04 0.04 0.05
0.02 0.02 0.03 0.03 0.02 0.02 0.02 0.02 0.02 0.02 0.02 0.03 0.03 0.02 0.02 0.02 0.02 0.03 0.03 0.04 0.05 0.05 0.05 0.04 0.05 0.05 0.06 0.06 0.06 0.06 0.06 0.06 0.05 0.05 0.05 0.06 0.06 0.06 0.06 0.05 0.04 0.04 0.04
0.02 0.02 0.04 0.03 0.02 0.02 0.02 0.02 0.02 0.02 0.02 0.02 0.02 0.03 0.03 0.02 0.03 0.03 0.03 0.04 0.05 0.06 0.06 0.05 0.04 0.03 0.04 0.04 0.04 0.04 0.04 0.04 0.04 0.04 0.04 0.04 0.05 0.06 0.06 0.06 0.05 0.04 0.04
0.02 0.03 0.04 0.04 0.03 0.02 0.02 0.02 0.02 0.02 0.02 0.02 0.02 0.02 0.02 0.02 0.03 0.03 0.03 0.04 0.05 0.05 0.06 0.05 0.03 0.03 0.03 0.03 0.03 0.03 0.04 0.04 0.03 0.04 0.04 0.04 0.04 0.05 0.05 0.05 0.05 0.04 0.04
0.02 0.03 0.04 0.04 0.03 0.03 0.02 0.02 0.02 0.02 0.02 0.03 0.03 0.02 0.02 0.02 0.02 0.03 0.04 0.06 0.06 0.05 0.04 0.03 0.03 0.02 0.02 0.02 0.02 0.03 0.03 0.03 0.04 0.04 0.04 0.04 0.04 0.04 0.04 0.04 0.03 0.03 0.03
0.01 0.02 0.03 0.04 0.04 0.03 0.02 0.02 0.02 0.02 0.02 0.02 0.03 0.03 0.03 0.02 0.02 0.03 0.04 0.05 0.05 0.05 0.04 0.04 0.03 0.02 0.02 0.02 0.02 0.02 0.02 0.03 0.03 0.04 0.04 0.04 0.04 0.04 0.03 0.03 0.03 0.03 0.03
0.01 0.01 0.02 0.03 0.03 0.03 0.03 0.02 0.02 0.02 0.02 0.02 0.02 0.03 0.03 0.03 0.03 0.03 0.04 0.04 0.04 0.04 0.04 0.04 0.03 0.03 0.02 0.03 0.03 0.03 0.03 0.03 0.03 0.03 0.03 0.03 0.03 0.03 0.03 0.03 0.03 0.03 0.03
0.01 0.01 0.02 0.02 0.02 0.02 0.03 0.02 0.02 0.02 0.02 0.02 0.02 0.02 0.02 0.03 0.03 0.03 0.03 0.03 0.03 0.03 0.04 0.04 0.04 0.04 0.03 0.03 0.03 0.03 0.03 0.03 0.02 0.02 0.02 0.02 0.02 0.02 0.03 0.03 0.03 0.03 0.03
0.01 0.01 0.01 0.02 0.02 0.02 0.02 0.02 0.02 0.02 0.02 0.02 0.02 0.02 0.01 0.02 0.02 0.02 0.02 0.03 0.03 0.03 0.03 0.04 0.04 0.04 0.04 0.04 0.03 0.02 0.02 0.02 0.02 0.02 0.02 0.02 0.02 0.02 0.02 0.03 0.03 0.03 0.04
0.01 0.01 0.01 0.01 0.01 0.02 0.02 0.02 0.02 0.02 0.02 0.02 0.02 0.02 0.02 0.02 0.02 0.02 0.02 0.02 0.03 0.03 0.03 0.03 0.03 0.03 0.03 0.03 0.03 0.03 0.02 0.02 0.01 0.01 0.02 0.02 0.02 0.02 0.02 0.02 0.02 0.03 0.03
0.01 0.01 0.01 0.01 0.01 0.01 0.01 0.01 0.01 0.02 0.02 0.02 0.02 0.02 0.02 0.02 0.02 0.02 0.02 0.03 0.03 0.03 0.02 0.02 0.02 0.02 0.02 0.02 0.02 0.03 0.03 0.02 0.02 0.02 0.02 0.02 0.02 0.02 0.02 0.02 0.02 0.02 0.02
0.01 0.01 0.01 0.01 0.01 0.01 0.01 0.01 0.01 0.01 0.01 0.02 0.02 0.02 0.02 0.02 0.02 0.02 0.02 0.02 0.02 0.02 0.02 0.02 0.02 0.01 0.01 0.01 0.01 0.02 0.02 0.02 0.02 0.03 0.03 0.03 0.03 0.02 0.02 0.02 0.02 0.02 0.02
0.01 0.01 0.01 0.01 0.01 0.01 0.01 0.01 0.01 0.01 0.01 0.01 0.02 0.02 0.02 0.02 0.02 0.02 0.02 0.02 0.02 0.02 0.02 0.01 0.01 0.01 0.01 0.01 0.01 0.01 0.02 0.02 0.02 0.03 0.03 0.03 0.03 0.02 0.02 0.02 0.02 0.02 0.02
MSLP
1039.77 1039.04 1038.32 1037.67 1037.11 1036.63 1036.20 1035.81 1035.41 1034.98 1034.51 1034.02 1033.50 1033.00 1032.52 1032.10 1031.72 1031.41 1031.13 1030.90 1030.68 1030.47 1030.28 1030.10 1029.95 1029.82 1029.72 1029.65 1029.59 1029.53 1029.45 1029.34 1029.19 1029.00 1028.77 1028.51 1028.24 1027.96 1027.70 1027.45 1027.22 1026.99 1026.77
1039.64 1038.88 1038.16 1037.51 1036.95 1036.48 1036.08 1035.70 1035.31 1034.89 1034.41 1033.90 1033.36 1032.81 1032.30 1031.82 1031.41 1031.06 1030.77 1030.52 1030.29 1030.08 1029.88 1029.69 1029.51 1029.36 1029.22 1029.12 1029.03 1028.96 1028.88 1028.79 1028.69 1028.55 1028.38 1028.18 1027.97 1027.74 1027.51 1027.28 1027.06 1026.83 1026.61
1039.44 1038.69 1037.99 1037.37 1036.85 1036.42 1036.04 1035.68 1035.30 1034.86 1034.37 1033.81 1033.22 1032.63 1032.06 1031.54 1031.08 1030.70 1030.39 1030.12 1029.89 1029.68 1029.47 1029.27 1029.06 1028.87 1028.70 1028.55 1028.43 1028.34 1028.26 1028.18 1028.10 1028.01 1027.90 1027.76 1027.61 1027.44 1027.25 1027.05 1026.85 1026.64 1026.42
1039.17 1038.46 1037.82 1037.26 1036.80 1036.42 1036.07 1035.73 1035.35 1034.90 1034.37 1033.77 1033.13 1032.48 1031.85 1031.28 1030.79 1030.38 1030.04 1029.77 1029.54 1029.33 1029.12 1028.90 1028.68 1028.46 1028.25 1028.06 1027.90 1027.77 1027.67 1027.59 1027.53 1027.47 1027.40 1027.31 1027.21 1027.09 1026.94 1026.79 1026.61 1026.42 1026.21
1038.85 1038.21 1037.64 1037.16 1036.77 1036.45 1036.14 1035.82 1035.43 1034.97 1034.41 1033.77 1033.08 1032.38 1031.71 1031.10 1030.57 1030.14 1029.79 1029.52 1029.29 1029.08 1028.87 1028.65 1028.41 1028.16 1027.92 1027.69 1027.48 1027.32 1027.19 1027.10 1027.03 1026.98 1026.94 1026.89 1026.82 1026.73 1026.62 1026.50 1026.35 1026.18 1025.99
1038.48 1037.92 1037.44 1037.05 1036.74 1036.47 1036.20 1035.90 1035.52 1035.04 1034.47 1033.80 1033.08 1032.35 1031.65 1031.01 1030.46 1030.02 1029.66 1029.39 1029.16 1028.95 1028.74 1028.52 1028.27 1028.00 1027.73 1027.46 1027.22 1027.02 1026.86 1026.74 1026.66 1026.60 1026.56 1026.52 1026.47 1026.41 1026.32 1026.21 1026.08 1025.93 1025.76
1038.07 1037.61 1037.22 1036.91 1036.66 1036.45 1036.22 1035.94 1035.57 1035.10 1034.52 1033.85 1033.12 1032.38 1031.67 1031.02 1030.47 1030.01 1029.65 1029.37 1029.14 1028.93 1028.72 1028.48 1028.22 1027.94 1027.65 1027.36 1027.09 1026.86 1026.67 1026.52 1026.42 1026.35 1026.29 1026.25 1026.20 1026.13 1026.05 1025.95 1025.83 1025.69 1025.52
1037.64 1037.27 1036.96 1036.73 1036.54 1036.37 1036.17 1035.91 1035.56 1035.10 1034.54 1033.89 1033.18 1032.45 1031.76 1031.12 1030.57 1030.11 1029.74 1029.44 1029.19 1028.97 1028.74 1028.50 1028.23 1027.94 1027.64 1027.34 1027.06 1026.81 1026.60 1026.43 1026.31 1026.22 1026.14 1026.08 1026.02 1025.94 1025.85 1025.74 1025.61 1025.46 1025.30
1037.22 1036.92 1036.69 1036.51 1036.37 1036.22 1036.04 1035.80 1035.47 1035.04 1034.51 1033.90 1033.23 1032.54 1031.88 1031.26 1030.72 1030.25 1029.87 1029.55 1029.27 1029.02 1028.77 1028.51 1028.23 1027.94 1027.64 1027.34 1027.06 1026.82 1026.61 1026.43 1026.30 1026.19 1026.10 1026.01 1025.93 1025.83 1025.72 1025.59 1025.45 1025.29 1025.12
1036.81 1036.59 1036.42 1036.27 1036.15 1036.02 1035.85 1035.62 1035.31 1034.90 1034.42 1033.85 1033.24 1032.61 1031.98 1031.39 1030.86 1030.39 1029.98 1029.63 1029.31 1029.03 1028.75 1028.47 1028.18 1027.89 1027.60 1027.33 1027.07 1026.84 1026.64 1026.48 1026.34 1026.23 1026.13 1026.03 1025.92 1025.80 1025.67 1025.52 1025.36 1025.18 1024.99
1036.45 1036.29 1036.15 1036.02 1035.90 1035.76 1035.58 1035.35 1035.05 1034.68 1034.23 1033.73 1033.17 1032.60 1032.02 1031.46 1030.94 1030.46 1030.02 1029.63 1029.28 1028.95 1028.64 1028.34 1028.06 1027.78 1027.51 1027.26 1027.04 1026.85 1026.68 1026.54 1026.42 1026.31 1026.21 1026.10 1025.98 1025.84 1025.69 1025.53 1025.34 1025.15 1024.94
1036.12 1036.01 1035.88 1035.76 1035.61 1035.45 1035.25 1035.00 1034.71 1034.36 1033.95 1033.49 1032.99 1032.47 1031.94 1031.41 1030.90 1030.41 1029.95 1029.53 1029.14 1028.78 1028.45 1028.14 1027.85 1027.59 1027.36 1027.15 1026.98 1026.83 1026.70 1026.59 1026.50 1026.41 1026.31 1026.20 1026.07 1025.93 1025.77 1025.59 1025.39 1025.19 1024.96
1035.82 1035.73 1035.61 1035.46 1035.29 1035.08 1034.84 1034.58 1034.27 1033.93 1033.55 1033.13 1032.68 1032.20 1031.71 1031.20 1030.70 1030.21 1029.74 1029.30 1028.89 1028.51 1028.17 1027.86 1027.59 1027.36 1027.17 1027.01 1026.88 1026.78 1026.70 1026.63 1026.56 1026.49 1026.40 1026.30 1026.18 1026.03 1025.86 1025.68 1025.48 1025.27 1025.04
1035.50 1035.43 1035.30 1035.12 1034.90 1034.65 1034.37 1034.07 1033.75 1033.41 1033.04 1032.65 1032.23 1031.78 1031.32 1030.84 1030.35 1029.87 1029.40 1028.95 1028.54 1028.16 1027.83 1027.54 1027.30 1027.11 1026.97 1026.86 1026.78 1026.72 1026.68 1026.64 1026.60 1026.54 1026.47 1026.37 1026.25 1026.11 1025.95 1025.77 1025.58 1025.37 1025.14
1035.12 1035.05 1034.91 1034.70 1034.44 1034.15 1033.83 1033.50 1033.16 1032.81 1032.44 1032.06 1031.66 1031.23 1030.79 1030.34 1029.87 1029.40 1028.95 1028.51 1028.12 1027.76 1027.46 1027.21 1027.01 1026.87 1026.77 1026.70 1026.67 1026.65 1026.64 1026.62 1026.60 1026.55 1026.48 1026.39 1026.28 1026.15 1026.00 1025.83 1025.65 1025.45 1025.22
1034.62 1034.56 1034.40 1034.18 1033.90 1033.58 1033.24 1032.88 1032.52 1032.16 1031.79 1031.41 1031.01 1030.60 1030.17 1029.73 1029.29 1028.84 1028.41 1028.01 1027.65 1027.34 1027.08 1026.88 1026.73 1026.64 1026.58 1026.56 1026.56 1026.56 1026.57 1026.56 1026.54 1026.50 1026.43 1026.35 1026.24 1026.12 1025.98 1025.83 1025.66 1025.46 1025.24
1033.97 1033.92 1033.77 1033.55 1033.27 1032.95 1032.61 1032.24 1031.87 1031.50 1031.13 1030.74 1030.34 1029.94 1029.51 1029.09 1028.66 1028.24 1027.84 1027.48 1027.17 1026.91 1026.70 1026.55 1026.46 1026.41 1026.39 1026.40 1026.42 1026.43 1026.44 1026.44 1026.41 1026.37 1026.30 1026.22 1026.12 1026.01 1025.88 1025.74 1025.58 1025.40 1025.19
1033.15 1033.12 1033.01 1032.82 1032.57 1032.27 1031.94 1031.60 1031.24 1030.87 1030.49 1030.10 1029.70 1029.28 1028.86 1028.44 1028.03 1027.63 1027.27 1026.95 1026.68 1026.47 1026.32 1026.22 1026.17 1026.16 1026.17 1026.20 1026.23 1026.25 1026.26 1026.24 1026.21 1026.16 1026.09 1026.01 1025.91 1025.80 1025.69 1025.56 1025.41 1025.23 1025.02
1032.16 1032.18 1032.11 1031.98 1031.79 1031.55 1031.27 1030.95 1030.62 1030.26 1029.89 1029.49 1029.08 1028.67 1028.24 1027.82 1027.42 1027.04 1026.70 1026.42 1026.19 1026.02 1025.91 1025.85 1025.83 1025.85 1025.88 1025.92 1025.95 1025.97 1025.97 1025.95 1025.91 1025.86 1025.78 1025.70 1025.61 1025.51 1025.39 1025.27 1025.13 1024.96 1024.75
1031.03 1031.10 1031.11 1031.06 1030.94 1030.77 1030.55 1030.29 1029.99 1029.66 1029.30 1028.91 1028.49 1028.06 1027.63 1027.21 1026.81 1026.45 1026.13 1025.86 1025.66 1025.52 1025.44 1025.41 1025.41 1025.44 1025.49 1025.53 1025.56 1025.58 1025.57 1025.55 1025.50 1025.44 1025.37 1025.28 1025.19 1025.10 1024.99 1024.87 1024.73 1024.56 1024.35
1029.79 1029.93 1030.02 1030.05 1030.02 1029.93 1029.78 1029.57 1029.32 1029.01 1028.67 1028.28 1027.87 1027.44 1027.01 1026.58 1026.18 1025.82 1025.51 1025.26 1025.07 1024.95 1024.88 1024.86 1024.87 1024.91 1024.95 1025.00 1025.03 1025.04 1025.04 1025.01 1024.96 1024.90 1024.83 1024.75 1024.66 1024.56 1024.46 1024.34 1024.19 1024.03 1023.82
1028.48 1028.69 1028.85 1028.95 1028.99 1028.97 1028.88 1028.73 1028.51 1028.24 1027.92 1027.55 1027.14 1026.72 1026.29 1025.87 1025.48 1025.12 1024.82 1024.57 1024.39 1024.27 1024.20 1024.18 1024.19 1024.22 1024.27 1024.31 1024.34 1024.35 1024.34 1024.32 1024.27 1024.22 1024.15 1024.06 1023.98 1023.88 1023.77 1023.65 1023.50 1023.33 1023.14
1027.13 1027.38 1027.59 1027.74 1027.84 1027.86 1027.82 1027.70 1027.52 1027.28 1026.98 1026.63 1026.25 1025.84 1025.43 1025.03 1024.65 1024.30 1024.01 1023.77 1023.59 1023.46 1023.39 1023.36 1023.36 1023.39 1023.42 1023.46 1023.48 1023.50 1023.49 1023.47 1023.43 1023.37 1023.30 1023.22 1023.12 1023.02 1022.90 1022.77 1022.63 1022.47 1022.28
1025.77 1026.03 1026.26 1026.43 1026.54 1026.58 1026.55 1026.46 1026.30 1026.08 1025.81 1025.50 1025.15 1024.77 1024.40 1024.02 1023.67 1023.35 1023.07 1022.84 1022.66 1022.53 1022.45 1022.41 1022.40 1022.42 1022.44 1022.47 1022.49 1022.50 1022.49 1022.47 1022.42 1022.36 1022.28 1022.19 1022.09 1021.97 1021.85 1021.71 1021.57 1021.41 1021.25
1024.40 1024.65 1024.85 1025.00 1025.09 1025.12 1025.09 1025.00 1024.86 1024.67 1024.43 1024.15 1023.84 1023.52 1023.19 1022.87 1022.56 1022.27 1022.02 1021.81 1021.64 1021.51 1021.42 1021.37 1021.34 1021.34 1021.35 1021.37 1021.38 1021.38 1021.36 1021.33 1021.28 1021.20 1021.11 1021.00 1020.88 1020.75 1020.61 1020.47 1020.32 1020.18 1020.05
1023.05 1023.24 1023.39 1023.49 1023.54 1023.54 1023.49 1023.39 1023.26 1023.08 1022.88 1022.65 1022.40 1022.15 1021.88 1021.61 1021.36 1021.11 1020.89 1020.70 1020.54 1020.42 1020.32 1020.26 1020.22 1020.20 1020.19 1020.19 1020.18 1020.17 1020.14 1020.08 1020.01 1019.91 1019.80 1019.66 1019.52 1019.37 1019.22 1019.07 1018.93 1018.81 1018.70
Thickness
5391 5393 5396 5400 5403 5407 5409 5412 5415 5417 5419 5422 5424 5426 5427 5428 5428 5428 5427 5427 5427 5427 5427 5427 5427 5427 5426 5425 5426 5425 5425 5425 5424 5425 5425 5425 5426 5427 5428 5429 5430 5431 5431
5378 5380 5383 5386 5389 5392 5395 5399 5402 5404 5407 5410 5412 5414 5415 5416 5417 5417 5417 5417 5417 5417 5417 5417 5417 5416 5416 5415 5415 5414 5413 5413 5413 5412 5411 5411 5413 5414 5414 5415 5416 5417 5418
5365 5367 5370 5372 5375 5378 5381 5385 5388 5391 5394 5397 5400 5402 5403 5404 5406 5407 5407 5407 5407 5407 5407 5407 5407 5406 5405 5405 5404 5403 5402 5402 5401 5400 5400 5399 5400 5400 5401 5401 5402 5403 5404
5352 5354 5357 5359 5362 5364 5367 5371 5375 5378 5381 5384 5387 5390 5391 5392 5394 5395 5396 5397 5397 5397 5396 5397 5397 5396 5396 5395 5394 5392 5391 5389 5388 5387 5387 5387 5387 5388 5387 5387 5388 5389 5391
5338 5340 5343 5346 5348 5351 5354 5357 5360 5363 5366 5370 5373 5376 5379 5380 5382 5384 5385 5386 5386 5386 5385 5385 5386 5386 5385 5385 5384 5383 5380 5378 5376 5375 5375 5375 5375 5374 5375 5375 5375 5376 5377
5324 5326 5330 5332 5335 5337 5340 5344 5346 5350 5353 5356 5360 5363 5365 5368 5370 5372 5373 5374 5375 5374 5374 5374 5374 5374 5374 5374 5374 5373 5372 5369 5367 5365 5365 5365 5366 5365 5364 5363 5361 5361 5364
5311 5313 5316 5318 5321 5323 5325 5328 5332 5335 5338 5341 5345 5348 5351 5354 5356 5359 5361 5362 5362 5362 5363 5363 5363 5363 5363 5363 5362 5360 5360 5359 5359 5358 5357 5357 5356 5355 5353 5351 5350 5350 5352
5299 5300 5302 5304 5306 5309 5311 5314 5317 5320 5323 5327 5330 5334 5337 5340 5342 5345 5347 5348 5349 5350 5351 5352 5352 5351 5351 5350 5349 5348 5348 5347 5347 5347 5347 5348 5346 5345 5344 5342 5340 5339 5340
5286 5288 5289 5290 5292 5295 5297 5300 5303 5306 5310 5313 5317 5320 5323 5326 5327 5330 5332 5333 5335 5337 5338 5339 5339 5339 5339 5339 5337 5336 5335 5335 5335 5335 5335 5335 5334 5334 5333 5330 5327 5326 5327
5273 5275 5276 5277 5279 5281 5284 5286 5290 5293 5297 5301 5304 5307 5309 5312 5314 5316 5318 5319 5321 5323 5324 5326 5327 5328 5327 5326 5325 5325 5325 5324 5323 5323 5322 5322 5321 5321 5321 5320 5319 5317 5317
5261 5263 5264 5266 5267 5269 5271 5274 5277 5281 5285 5288 5291 5293 5296 5298 5301 5303 5304 5305 5307 5308 5310 5312 5313 5315 5315 5315 5315 5314 5315 5314 5312 5311 5311 5311 5310 5309 5309 5310 5309 5309 5308
5248 5250 5252 5254 5256 5258 5259 5262 5264 5267 5270 5274 5277 5280 5282 5284 5287 5289 5291 5292 5294 5295 5297 5298 5300 5301 5303 5303 5303 5303 5303 5302 5300 5300 5299 5299 5299 5299 5299 5298 5298 5298 5298
5236 5238 5241 5243 5245 5246 5247 5249 5251 5254 5257 5260 5263 5266 5269 5271 5272 5275 5277 5279 5281 5282 5284 5285 5287 5289 5290 5291 5290 5290 5290 5289 5289 5288 5288 5288 5288 5288 5287 5286 5286 5285 5285
5224 5226 5229 5231 5234 5235 5236 5238 5240 5242 5244 5247 5250 5252 5255 5257 5259 5261 5262 5265 5267 5269 5271 5273 5275 5276 5276 5278 5278 5277 5277 5277 5277 5277 5276 5275 5274 5274 5274 5274 5273 5273 5272
5212 5214 5216 5219 5221 5223 5225 5227 5229 5231 5233 5235 5237 5239 5241 5244 5247 5249 5250 5252 5254 5256 5258 5260 5261 5261 5262 5263 5264 5264 5265 5265 5265 5264 5263 5262 5262 5262 5262 5261 5261 5261 5260
5200 5202 5205 5207 5209 5212 5214 5217 5219 5221 5224 5225 5227 5228 5230 5233 5235 5238 5241 5243 5245 5247 5248 5249 5249 5249 5250 5251 5252 5252 5253 5253 5253 5252 5252 5251 5251 5251 5250 5250 5249 5249 5249
5187 5189 5192 5195 5197 5200 5202 5204 5207 5210 5212 5214 5216 5218 5220 5222 5225 5228 5230 5232 5234 5236 5237 5237 5238 5238 5238 5239 5240 5241 5241 5241 5241 5241 5241 5241 5240 5240 5239 5239 5238 5238 5238
5176 5178 5181 5182 5184 5187 5189 5191 5193 5196 5199 5201 5203 5206 5208 5211 5213 5216 5219 5221 5222 5224 5225 5226 5227 5227 5228 5228 5229 5230 5230 5230 5230 5230 5230 5230 5229 5228 5228 5228 5228 5228 5228
5165 5167 5168 5170 5172 5174 5177 5178 5180 5182 5185 5188 5190 5193 5195 5198 5201 5203 5206 5207 5209 5212 5214 5215 5215 5216 5217 5218 5219 5220 5220 5220 5220 5220 5220 5220 5219 5218 5218 5218 5218 5219 5219
5154 5156 5157 5158 5160 5161 5163 5165 5167 5169 5171 5174 5177 5180 5182 5184 5187 5190 5192 5194 5197 5199 5201 5203 5204 5205 5206 5207 5208 5209 5210 5210 5210 5210 5210 5210 5210 5209 5209 5209 5210 5210 5211
5143 5144 5146 5146 5147 5148 5150 5152 5153 5155 5158 5160 5163 5167 5171 5172 5174 5177 5179 5182 5185 5187 5190 5191 5192 5193 5195 5197 5198 5199 5199 5200 5200 5201 5201 5201 5201 5201 5201 5201 5202 5202 5203
5131 5132 5132 5133 5134 5135 5137 5139 5141 5143 5145 5147 5151 5153 5157 5160 5161 5163 5166 5169 5172 5175 5177 5180 5181 5182 5184 5186 5188 5189 5190 5190 5191 5191 5192 5192 5193 5193 5193 5194 5194 5194 5194
5121 5121 5121 5122 5122 5124 5126 5127 5128 5130 5132 5135 5138 5141 5143 5146 5148 5151 5153 5156 5159 5162 5165 5167 5170 5171 5173 5175 5177 5179 5181 5182 5183 5183 5184 5184 5185 5185 5186 5186 5186 5186 5186
5110 5110 5110 5111 5112 5112 5114 5115 5117 5119 5121 5123 5126 5129 5131 5134 5136 5139 5141 5144 5147 5150 5152 5155 5157 5160 5162 5164 5166 5168 5170 5172 5174 5175 5176 5177 5177 5178 5179 5179 5179 5179 5179
5100 5099 5099 5100 5100 5101 5103 5104 5106 5108 5110 5112 5115 5117 5120 5122 5125 5127 5129 5132 5135 5138 5140 5143 5145 5148 5151 5153 5156 5158 5161 5163 5165 5167 5168 5169 5170 5171 5171 5171 5171 5172 5172
5090 5090 5090 5090 5090 5091 5093 5094 5096 5097 5099 5101 5103 5106 5108 5111 5113 5116 5118 5121 5123 5126 5129 5131 5134 5137 5140 5143 5146 5149 5152 5155 5157 5159 5160 5161 5162 5162 5162 5163 5164 5164 5164